This is the latest recevied weather packets stored in our database for station/object DB0MOD. If no packets are shown the sender has not sent any weather packets the latest 1 day(s).
| Time | Temp. | Humidity | Pressure | Rain* | Wind** | Luminosity | Snow |
|---|---|---|---|---|---|---|---|
| 1778021042 | 6.67° C | 10% | 1009.1 hPa | 0 mm | 0 m/s | - | - |
| 1778020742 | 6.67° C | 10% | 1009.3 hPa | 0 mm | 0 m/s | - | - |
| 1778020442 | 7.22° C | 10% | 1009.1 hPa | 0 mm | 0 m/s | - | - |
| 1778019842 | 6.67° C | 10% | 1009.2 hPa | 0 mm | 0 m/s | - | - |
| 1778019242 | 6.67° C | 10% | 1009.1 hPa | 0 mm | 0 m/s | - | - |
| 1778018642 | 6.67° C | 10% | 1009.3 hPa | 0 mm | 0 m/s | - | - |
| 1778018042 | 6.67° C | 10% | 1009.1 hPa | 0 mm | 0 m/s | - | - |
| 1778017442 | 6.67° C | 10% | 1009.1 hPa | 0 mm | 0 m/s | - | - |
| 1778017142 | 6.67° C | 10% | 1009.1 hPa | 0 mm | 0 m/s | - | - |
| 1778016842 | 6.67° C | 10% | 1009.1 hPa | 0 mm | 0 m/s | - | - |
| 1778016242 | 6.11° C | 10% | 1009.2 hPa | 0 mm | 0 m/s | - | - |
| 1778015942 | 6.11° C | 10% | 1009.3 hPa | 0 mm | 0 m/s | - | - |
| 1778015642 | 6.11° C | 10% | 1009.4 hPa | 0 mm | 0 m/s | - | - |
| 1778015343 | 6.11° C | 10% | 1009.3 hPa | 0 mm | 0 m/s | - | - |
| 1778015042 | 6.11° C | 10% | 1009.4 hPa | 0 mm | 0 m/s | - | - |
| 1778014744 | 6.67° C | 10% | 1009.2 hPa | 0 mm | 0 m/s | - | - |
| 1778014442 | 6.67° C | 10% | 1009.3 hPa | 0 mm | 0 m/s | - | - |
| 1778014142 | 6.67° C | 10% | 1009.1 hPa | 0 mm | 0 m/s | - | - |
| 1778013843 | 6.67° C | 10% | 1009.1 hPa | 0 mm | 0 m/s | - | - |
| 1778013243 | 7.22° C | 10% | 1008.9 hPa | 0 mm | 0 m/s | - | - |
| 1778012643 | 7.78° C | 10% | 1009.3 hPa | 0 mm | 0 m/s | - | - |
| 1778012343 | 7.78° C | 10% | 1009.1 hPa | 0 mm | 0 m/s | - | - |
| 1778012043 | 7.78° C | 10% | 1009.1 hPa | 0 mm | 0 m/s | - | - |
| 1778011442 | 8.33° C | 10% | 1009 hPa | 0 mm | 0 m/s | - | - |
| 1778010979 | 8.89° C | 10% | 1009.1 hPa | 0 mm | 0 m/s | - | - |
* Rain latest hour (hover to see other rain measurements)
** Current wind speed in m/s (hover to see current wind gust speed)